Augusta, Maine, United States (04330)
Lat: 44.31N, Lon: 69.78W
Wx Zone: MEZ021
Local Info
Past Weather Observations for Tuesday, March 3, 2015

NOTE: This archive is for the closest National Weather Service station to Augusta. Information may differ from the station used for current weather conditions.

Click here for Long-term Archive

Time Weather Temperature Dewpoint Humidity Pressure Winds Precip Visibility
23:53
Obscured
Snow
25°F / -4°C 23°F / -5°C 93% 29.77 in
(1008 mb)
S 6.9 mph
(S 11 kph)
0.06 in
(1.52 mm)
1/2SM
23:46
Obscured
Snow
25°F / -4°C 23°F / -5°C 93% 29.77 in
(1008 mb)
S 8.1 mph
(S 13 kph)
0.05 in
(1.27 mm)
1/2SM
23:30
Overcast
Light Snow
25°F / -4°C 23°F / -5°C 93% 29.8 in
(1009 mb)
S 8.1 mph
(S 13 kph)
0.03 in
(0.76 mm)
1 1/4SM
23:22
Obscured
Light Snow
25°F / -4°C 23°F / -5°C 93% 29.8 in
(1009 mb)
S 9.2 mph
(S 15 kph)
0.03 in
(0.76 mm)
3/4SM
23:02
Obscured
Snow
25°F / -4°C 21°F / -6°C 86% 29.83 in
(1010 mb)
S 11.5 mph
(S 19 kph)
0.01 in
(0.25 mm)
1/2SM
22:53
Overcast
Light Snow
25°F / -4°C 21°F / -6°C 86% 29.83 in
(1010 mb)
S 10.4 mph
(S 17 kph)
0.05 in
(1.27 mm)
1SM
22:39
Overcast
Light Snow
25°F / -4°C 21°F / -6°C 86% 29.83 in
(1010 mb)
S 10.4 mph
(S 17 kph)
0.05 in
(1.27 mm)
1 1/4SM
22:04
Overcast
Light Snow
25°F / -4°C 21°F / -6°C 86% 29.92 in
(1013 mb)
S 9.2 mph
(S 15 kph)
0.01 in
(0.25 mm)
3/4SM
21:53
Overcast
Light Snow
23°F / -5°C 21°F / -6°C 93% 29.92 in
(1013 mb)
S 8.1 mph
(S 13 kph)
0.05 in
(1.27 mm)
1SM
21:27
Obscured
Light Snow
23°F / -5°C 19°F / -7°C 86% 29.95 in
(1014 mb)
SSE 9.2 mph
(SSE 15 kph)
0.02 in
(0.51 mm)
1SM
21:20
Obscured
Light Snow
23°F / -5°C 19°F / -7°C 86% 29.95 in
(1014 mb)
S 9.2 mph
(S 15 kph)
0.02 in
(0.51 mm)
3/4SM
21:04
Obscured
Light Snow
23°F / -5°C 19°F / -7°C 86% 29.95 in
(1014 mb)
S 11.5 mph
(S 19 kph)
0.01 in
(0.25 mm)
1SM
20:53
Overcast
Light Snow
23°F / -5°C 18°F / -8°C 80% 29.98 in
(1015 mb)
S 9.2 mph
(S 15 kph)
0.00 in
(0.00 mm)
1 1/4SM
20:48
Overcast
Light Snow
23°F / -5°C 18°F / -8°C 80% 29.98 in
(1015 mb)
S 9.2 mph
(S 15 kph)
0.00 in
(0.00 mm)
1 1/2SM
20:39
Overcast
Light Snow
25°F / -4°C 14°F / -10°C 63% 30.01 in
(1016 mb)
S 10.4 mph
(S 17 kph)
0.00 in
(0.00 mm)
2 1/2SM
19:53
Overcast
25°F / -4°C 10°F / -12°C 54% 30.01 in
(1016 mb)
S 9.2 mph
(S 15 kph)
- 10SM
18:53
Overcast
23°F / -5°C 7°F / -14°C 50% 30.06 in
(1018 mb)
SSE 9.2 mph
(SSE 15 kph)
- 10SM
17:53
Mostly Cloudy
23°F / -5°C 5°F / -15°C 46% 30.12 in
(1020 mb)
S 9.2 mph
(S 15 kph)
- 10SM
16:53
Clear
25°F / -4°C 1°F / -17°C 36% 30.15 in
(1021 mb)
SSE 11.5 mph
(SSE 19 kph)
- 10SM
15:53
Clear
27°F / -3°C -2°F / -19°C 28% 30.15 in
(1021 mb)
S 8.1 mph
(S 13 kph)
- 10SM
14:53
Clear
28°F / -2°C -8°F / -22°C 20% 30.21 in
(1023 mb)
SW 6.9 mph
(SW 11 kph)
- 10SM
13:53
Clear
27°F / -3°C -9°F / -23°C 20% 30.24 in
(1024 mb)
W 6.9 mph
(W 11 kph)
- 10SM
12:53
Clear
25°F / -4°C -8°F / -22°C 23% 30.27 in
(1025 mb)
SSW 8.1 mph
(SSW 13 kph)
- 10SM
11:53
Clear
23°F / -5°C -8°F / -22°C 25% 30.3 in
(1026 mb)
W 8.1 mph
(W 13 kph)
- 10SM
10:53
Clear
19°F / -7°C -8°F / -22°C 29% 30.33 in
(1027 mb)
SSW 8.1 mph
(SSW 13 kph)
- 10SM
09:53
Clear
18°F / -8°C -8°F / -22°C 32% 30.33 in
(1027 mb)
W 9.2 mph
(W 15 kph)
- 10SM
08:53
Clear
16°F / -9°C -8°F / -22°C 34% 30.33 in
(1027 mb)
Variable 6.9 mph
(Variable 11 kph)
- 10SM
07:53
Clear
12°F / -11°C -8°F / -22°C 40% 30.33 in
(1027 mb)
WNW 11.5 mph
(WNW 19 kph)
- 10SM
06:53
Clear
10°F / -12°C -8°F / -22°C 44% 30.3 in
(1026 mb)
W 11.5 mph
(W 19 kph)
- 10SM
05:53
Clear
10°F / -12°C -8°F / -22°C 44% 30.3 in
(1026 mb)
SSW 4.6 mph
(SSW 7 kph)
- 10SM
04:53
Clear
12°F / -11°C -8°F / -22°C 40% 30.27 in
(1025 mb)
Variable 3.5 mph
(Variable 6 kph)
- 10SM
03:53
Clear
12°F / -11°C -6°F / -21°C 44% 30.21 in
(1023 mb)
WNW 10.4 mph
(WNW 17 kph)
- 10SM
02:53
Clear
14°F / -10°C -6°F / -21°C 41% 30.18 in
(1022 mb)
WNW 13.8 mph
(WNW 22 kph)
- 10SM
01:53
Clear
16°F / -9°C -6°F / -21°C 37% 30.18 in
(1022 mb)
NW 11.5 mph
(NW 19 kph)
- 10SM
00:53
Clear
16°F / -9°C -6°F / -21°C 37% 30.15 in
(1021 mb)
NW 16.1 mph
(NW 26 kph)
- 10SM
Time Weather Temperature Dewpoint Humidity Pressure Winds Precip Visibility


Weather for websites

WeatherForYou.com, LLC is not responsible for any damages or problems caused by this service. Current weather conditions are obtained from the closest station including government and personal stations which may have varying degrees of accuracy. Weather forecasts are derived from the NOAA NDFD. Like all things, this site belongs to Jesus Christ... He just trusts me to maintain it. If you have any questions or comments email webmaster@weatherforyou.com

Copyright © 2015, WeatherForYou.com LLC. All rights reserved.